Location: Anuling
(14.1239°N, 120.8922°E)
Time: 00:32:44
(UTC+00:00)

GPS 2-17 Rocket1 - Pass Details

Date: 13 April 2026
Orbit: 544 x 613 km, 20.3° (Epoch: 19 May)

Event Time Altitude Azimuth Distance (km) Brightness Sun altitude
Rises 12:27:30 0° 288° (WNW) 2,856 7.6 -33.1°
Reaches altitude 10° 12:29:53 10° 292° (WNW) 1,948 6.4 -33.6°
Enters shadow 12:31:37 22° 300° (WNW) 1,323 5.3 -34.0°
